Flag for USA

Past Weather in New Wilmington, Pennsylvania, USA — Yesterday and Last 2 Weeks

Now
57 °F

Mostly cloudy.


Feels Like: 54 °F
Forecast: 62 / 43 °F
Wind: 15 mph from West

Location: New Castle, New Castle Municipal Airport
Current Time: Oct 1, 2020 at 4:24:56 pm
Latest Report: Oct 1, 2020 at 2:56 pm
Visibility: 10 mi
Pressure30.00 "Hg
Humidity: 53%
Dew Point: 40 °F
Location of New WilmingtonLocation

Past Weather in New Wilmington — Graph

°F

New Wilmington Temperature Yesterday

Maximum temperature yesterday: 63 °F (at 4:56 pm)
Minimum temperature yesterday: 48 °F (at 4:56 am)
Average temperature yesterday: 55 °F

High & Low Weather Summary for the Past Weeks

 TemperatureHumidityPressure
High79 °F (Sep 28, 2:56 pm)100% (Sep 16, 11:08 pm)30.63 "Hg (Sep 16, 11:08 pm)
Low33 °F (Sep 19, 7:56 am)29% (Sep 20, 3:56 pm)29.72 "Hg (Sep 28, 5:56 pm)
Average57 °F81%30.10 "Hg
* Reported Sep 16 2:56 pm — Oct 1 2:56 pm, New Wilmington. Weather by CustomWeather, © 2020

Note: Actual official high and low records may vary slightly from our data, if they occured in-between our weather recording intervals... More about our weather records

New Wilmington Weather History for the Previous 24 Hours

Scroll right to see more
 ConditionsComfort  
Time TempWeatherWind HumidityBarometerVisibility
2:56 pm
Thu, Oct 1
57 °FMostly cloudy.15 mph53%30.00 "Hg10 mi
1:56 pm63 °FSunny.13 mph48%29.99 "Hg10 mi
12:56 pm61 °FScattered clouds.12 mph54%30.01 "Hg10 mi
11:56 am60 °FScattered clouds.9 mph58%30.00 "Hg10 mi
10:56 am57 °FScattered clouds.9 mph64%30.01 "Hg10 mi
9:56 am54 °FPassing clouds.9 mph72%30.01 "Hg10 mi
8:56 am49 °FSunny.5 mph86%30.01 "Hg10 mi
7:56 am47 °FPartly sunny.5 mph90%30.00 "Hg10 mi
6:56 am46 °FClear.3 mph93%29.98 "Hg10 mi
5:56 am46 °FClear.5 mph93%29.96 "Hg10 mi
4:56 am47 °FClear.6 mph93%29.95 "Hg10 mi
3:56 am48 °FClear.5 mph89%29.94 "Hg10 mi
1:56 am51 °FPassing clouds.6 mph86%29.91 "Hg10 mi
12:56 am52 °FPassing clouds.9 mph86%29.89 "Hg10 mi
11:56 pm
Wed, Sep 30
53 °FClear.5 mph86%29.87 "Hg10 mi
10:56 pm55 °FPassing clouds.8 mph83%29.85 "Hg10 mi
9:56 pm54 °FPassing clouds.3 mph90%29.83 "Hg10 mi
8:56 pm55 °FPassing clouds.6 mph90%29.81 "Hg10 mi
7:56 pm56 °FPassing clouds.7 mph84%29.81 "Hg10 mi
6:56 pm60 °FLight rain. Overcast.8 mph67%29.80 "Hg10 mi
5:56 pm61 °FMore clouds than sun.10 mph62%29.77 "Hg10 mi
4:56 pm63 °FOvercast.13 mph58%29.74 "Hg10 mi
Weather by CustomWeather, © 2020

See weather overview